This is the latest recevied weather packets stored in our database for station/object KI5MKI. If no packets are shown the sender has not sent any weather packets the latest 10 day(s).
| Time | Temp. | Humidity | Pressure | Rain* | Wind** | Luminosity | Snow |
|---|---|---|---|---|---|---|---|
| 1777766224 | 25° C | 39% | 1019.2 hPa | 0 mm | - | 110 W/m² | - |
| 1777765921 | 25° C | 37% | 1019.2 hPa | 0 mm | - | 123 W/m² | - |
| 1777765617 | 24.44° C | 35% | 1019.1 hPa | 0 mm | - | 139 W/m² | - |
| 1777765315 | 24.44° C | 35% | 1019.2 hPa | 0 mm | - | 149 W/m² | - |
| 1777765010 | 24.44° C | 35% | 1019.2 hPa | 0 mm | - | 169 W/m² | - |
| 1777764707 | 23.89° C | 35% | 1019.2 hPa | 0 mm | - | 186 W/m² | - |
| 1777764403 | 23.89° C | 37% | 1019.3 hPa | 0 mm | - | 203 W/m² | - |
| 1777764101 | 24.44° C | 35% | 1019.5 hPa | 0 mm | - | 222 W/m² | - |
| 1777763797 | 24.44° C | 35% | 1019.3 hPa | 0 mm | - | 239 W/m² | - |
| 1777763495 | 25° C | 34% | 1019.2 hPa | 0 mm | - | 255 W/m² | - |
| 1777763194 | 24.44° C | 38% | 1019.4 hPa | 0 mm | - | 275 W/m² | - |
| 1777762892 | 24.44° C | 35% | 1019.4 hPa | 0 mm | - | 299 W/m² | - |
| 1777762586 | 24.44° C | 35% | 1019.4 hPa | 0 mm | - | 318 W/m² | - |
| 1777762285 | 24.44° C | 35% | 1019.2 hPa | 0 mm | - | 339 W/m² | - |
| 1777761981 | 24.44° C | 35% | 1019.3 hPa | 0 mm | - | 360 W/m² | - |
| 1777761677 | 24.44° C | 36% | 1019.3 hPa | 0 mm | - | 389 W/m² | - |
| 1777761375 | 24.44° C | 35% | 1019.5 hPa | 0 mm | - | 410 W/m² | - |
| 1777761074 | 24.44° C | 36% | 1019.3 hPa | 0 mm | - | 426 W/m² | - |
| 1777760770 | 25° C | 34% | 1019.5 hPa | 0 mm | - | 447 W/m² | - |
| 1777760467 | 24.44° C | 34% | 1019.4 hPa | 0 mm | - | 460 W/m² | - |
| 1777760162 | 23.89° C | 37% | 1019.5 hPa | 0 mm | - | 479 W/m² | - |
| 1777759860 | 23.89° C | 37% | 1019.5 hPa | 0 mm | - | 495 W/m² | - |
| 1777759555 | 23.89° C | 34% | 1019.7 hPa | 0 mm | - | 519 W/m² | - |
| 1777759252 | 24.44° C | 35% | 1019.5 hPa | 0 mm | - | 536 W/m² | - |
| 1777758949 | 24.44° C | 40% | 1019.8 hPa | 0 mm | - | 559 W/m² | - |
* Rain latest hour (hover to see other rain measurements)
** Current wind speed in m/s (hover to see current wind gust speed)